When you browse on this site, cookies collect data to enhance your experience and personalize the content and advertising you see.
Visit our Privacy Policy to learn more. By continuing to use the site, you agree to this use of cookies and data.
  • In Hungary
  • List of Countries
  • For 7 days
  • Water Temperature
  • Satellite Maps
  • Weather Map
  • News
  • Weather Widgets
  • user-avatar
    Login

    Hourly Weather Vikhove

    Today, 18 July, Thursday

    Time Temperature Precipitation Wind Pressure Humidity
    00:00 +14°C° 0 mm 2 mps 740 mmHg 86%
    01:00 +14°C° 0 mm 2 mps 739 mmHg 88%
    02:00 +13°C° 0 mm 2 mps 740 mmHg 90%
    03:00 +13°C° 0.4 mm 2 mps 740 mmHg 91%
    04:00 +13°C° 0.4 mm 2 mps 740 mmHg 93%
    05:00 +13°C° 0.4 mm 2 mps 740 mmHg 94%
    06:00 +14°C° 0 mm 2 mps 740 mmHg 89%
    07:00 +16°C° 0 mm 2 mps 740 mmHg 83%
    08:00 +17°C° 0 mm 3 mps 740 mmHg 77%
    09:00 +18°C° 0.1 mm 4 mps 741 mmHg 73%
    10:00 +19°C° 0.1 mm 4 mps 741 mmHg 68%
    11:00 +20°C° 0.1 mm 5 mps 741 mmHg 64%
    12:00 +20°C° 0.1 mm 5 mps 741 mmHg 62%
    13:00 +21°C° 0.1 mm 5 mps 741 mmHg 61%
    14:00 +21°C° 0.1 mm 5 mps 741 mmHg 60%
    15:00 +21°C° 0.1 mm 5 mps 742 mmHg 62%
    16:00 +21°C° 0.1 mm 5 mps 742 mmHg 65%
    17:00 +20°C° 0.1 mm 5 mps 742 mmHg 68%
    18:00 +19°C° 0.1 mm 4 mps 742 mmHg 74%
    19:00 +17°C° 0.1 mm 4 mps 742 mmHg 80%
    20:00 +16°C° 0.1 mm 3 mps 742 mmHg 86%
    21:00 +14°C° 0 mm 3 mps 742 mmHg 88%
    22:00 +14°C° 0 mm 3 mps 743 mmHg 91%
    23:00 +13°C° 0 mm 3 mps 743 mmHg 93%

    Tomorrow, 19 July, Friday

    Time Temperature Precipitation Wind Pressure Humidity
    00:00 +13°C° 0 mm 3 mps 743 mmHg 94%
    01:00 +13°C° 0 mm 3 mps 743 mmHg 95%
    02:00 +12°C° 0 mm 3 mps 743 mmHg 95%
    03:00 +12°C° 0 mm 3 mps 743 mmHg 95%
    04:00 +13°C° 0 mm 4 mps 743 mmHg 95%
    05:00 +13°C° 0 mm 4 mps 744 mmHg 95%
    06:00 +14°C° 0 mm 4 mps 744 mmHg 90%
    07:00 +16°C° 0 mm 5 mps 744 mmHg 85%
    08:00 +19°C° 0 mm 5 mps 745 mmHg 80%
    09:00 +20°C° 0 mm 5 mps 745 mmHg 76%
    10:00 +21°C° 0 mm 5 mps 745 mmHg 71%
    11:00 +22°C° 0 mm 5 mps 745 mmHg 67%
    12:00 +23°C° 0.2 mm 5 mps 745 mmHg 65%
    13:00 +23°C° 0.2 mm 5 mps 745 mmHg 63%
    14:00 +23°C° 0.2 mm 5 mps 745 mmHg 62%
    15:00 +23°C° 0.2 mm 4 mps 746 mmHg 63%
    16:00 +23°C° 0.2 mm 4 mps 746 mmHg 65%
    17:00 +23°C° 0.2 mm 4 mps 746 mmHg 66%
    18:00 +21°C° 0 mm 3 mps 746 mmHg 71%
    19:00 +20°C° 0 mm 3 mps 746 mmHg 77%
    20:00 +18°C° 0 mm 2 mps 747 mmHg 82%
    21:00 +17°C° 0 mm 2 mps 747 mmHg 84%
    22:00 +17°C° 0 mm 2 mps 747 mmHg 86%
    23:00 +16°C° 0 mm 2 mps 747 mmHg 88%

    Day after tomorrow, 20 July, Saturday

    Time Temperature Precipitation Wind Pressure Humidity
    00:00 +16°C° 0 mm 2 mps 747 mmHg 88%
    01:00 +16°C° 0 mm 2 mps 747 mmHg 88%
    02:00 +15°C° 0 mm 2 mps 747 mmHg 88%
    03:00 +15°C° 0 mm 2 mps 748 mmHg 88%
    04:00 +15°C° 0 mm 2 mps 748 mmHg 88%
    05:00 +15°C° 0 mm 2 mps 748 mmHg 88%
    06:00 +17°C° 0 mm 2 mps 748 mmHg 83%
    07:00 +19°C° 0 mm 3 mps 749 mmHg 78%
    08:00 +21°C° 0 mm 3 mps 749 mmHg 73%
    09:00 +22°C° 0 mm 3 mps 749 mmHg 69%
    10:00 +23°C° 0 mm 4 mps 749 mmHg 64%
    11:00 +25°C° 0 mm 4 mps 750 mmHg 59%
    12:00 +26°C° 0 mm 4 mps 750 mmHg 57%
    13:00 +26°C° 0 mm 3 mps 749 mmHg 55%
    14:00 +27°C° 0 mm 3 mps 749 mmHg 53%
    15:00 +26°C° 0.2 mm 3 mps 749 mmHg 57%
    16:00 +26°C° 0.2 mm 3 mps 749 mmHg 62%
    17:00 +25°C° 0.2 mm 3 mps 750 mmHg 66%
    18:00 +24°C° 0.1 mm 2 mps 750 mmHg 71%
    19:00 +21°C° 0.1 mm 2 mps 750 mmHg 76%
    20:00 +21°C° 0.1 mm 1 mps 750 mmHg 81%
    21:00 +20°C° 0 mm 1 mps 750 mmHg 82%
    22:00 +19°C° 0 mm 1 mps 750 mmHg 84%
    23:00 +19°C° 0 mm 1 mps 750 mmHg 85%

    21 July, Sunday

    Time Temperature Precipitation Wind Pressure Humidity
    00:00 +18°C° 0 mm 1 mps 750 mmHg 86%
    01:00 +18°C° 0 mm 1 mps 750 mmHg 87%
    02:00 +18°C° 0 mm 1 mps 750 mmHg 87%
    03:00 +16°C° 0 mm 0 mps 750 mmHg 87%
    04:00 +16°C° 0 mm 0 mps 750 mmHg 87%
    05:00 +16°C° 0 mm 0 mps 750 mmHg 87%
    06:00 +18°C° 0 mm 0 mps 750 mmHg 82%
    07:00 +21°C° 0 mm 1 mps 750 mmHg 76%
    08:00 +23°C° 0 mm 1 mps 750 mmHg 71%
    09:00 +24°C° 0 mm 1 mps 750 mmHg 65%
    10:00 +25°C° 0 mm 1 mps 750 mmHg 59%
    11:00 +26°C° 0 mm 2 mps 750 mmHg 53%
    12:00 +26°C° 0 mm 2 mps 750 mmHg 52%
    13:00 +27°C° 0 mm 2 mps 750 mmHg 51%
    14:00 +27°C° 0 mm 2 mps 750 mmHg 50%
    15:00 +27°C° 0 mm 1 mps 750 mmHg 52%
    16:00 +27°C° 0 mm 1 mps 750 mmHg 54%
    17:00 +26°C° 0 mm 1 mps 750 mmHg 55%
    18:00 +25°C° 0 mm 1 mps 750 mmHg 60%
    19:00 +23°C° 0 mm 1 mps 750 mmHg 64%
    20:00 +21°C° 0 mm 1 mps 749 mmHg 68%
    21:00 +20°C° 0 mm 1 mps 749 mmHg 70%
    22:00 +19°C° 0 mm 1 mps 749 mmHg 73%
    23:00 +19°C° 0 mm 1 mps 749 mmHg 75%

    22 July, Monday

    Time Temperature Precipitation Wind Pressure Humidity
    00:00 +16°C° 0 mm 0 mps 749 mmHg 77%
    01:00 +16°C° 0 mm 0 mps 749 mmHg 79%
    02:00 +16°C° 0 mm 0 mps 749 mmHg 81%
    03:00 +16°C° 0 mm 0 mps 749 mmHg 80%
    04:00 +16°C° 0 mm 0 mps 749 mmHg 80%
    05:00 +18°C° 0 mm 1 mps 749 mmHg 79%
    06:00 +20°C° 0 mm 1 mps 748 mmHg 75%
    07:00 +22°C° 0 mm 1 mps 748 mmHg 70%
    08:00 +24°C° 0 mm 1 mps 748 mmHg 65%
    09:00 +25°C° 0 mm 2 mps 748 mmHg 61%
    10:00 +26°C° 0 mm 2 mps 748 mmHg 57%
    11:00 +27°C° 0 mm 2 mps 748 mmHg 53%
    12:00 +26°C° 0.3 mm 3 mps 747 mmHg 60%
    13:00 +25°C° 0.3 mm 3 mps 747 mmHg 68%
    14:00 +24°C° 0.3 mm 3 mps 747 mmHg 75%
    15:00 +24°C° 0.3 mm 3 mps 746 mmHg 77%
    16:00 +24°C° 0.3 mm 2 mps 746 mmHg 79%
    17:00 +23°C° 0.3 mm 2 mps 746 mmHg 81%
    18:00 +22°C° 0.2 mm 1 mps 745 mmHg 84%
    19:00 +21°C° 0.2 mm 1 mps 745 mmHg 86%
    20:00 +20°C° 0.2 mm 1 mps 745 mmHg 89%
    21:00 +20°C° 0.1 mm 1 mps 745 mmHg 90%
    22:00 +19°C° 0.1 mm 1 mps 744 mmHg 91%
    23:00 +19°C° 0.1 mm 1 mps 744 mmHg 92%

    23 July, Tuesday

    Time Temperature Precipitation Wind Pressure Humidity
    00:00 +19°C° 0 mm 1 mps 744 mmHg 93%
    01:00 +18°C° 0 mm 1 mps 744 mmHg 94%
    02:00 +17°C° 0 mm 2 mps 744 mmHg 94%
    03:00 +17°C° 0 mm 2 mps 743 mmHg 95%
    04:00 +17°C° 0 mm 2 mps 743 mmHg 96%
    05:00 +17°C° 0 mm 2 mps 743 mmHg 97%
    06:00 +18°C° 0 mm 3 mps 743 mmHg 93%
    07:00 +19°C° 0 mm 3 mps 743 mmHg 90%
    08:00 +20°C° 0 mm 4 mps 743 mmHg 86%
    09:00 +21°C° 0 mm 4 mps 743 mmHg 82%
    10:00 +22°C° 0 mm 4 mps 743 mmHg 77%
    11:00 +23°C° 0 mm 4 mps 743 mmHg 72%
    12:00 +23°C° 0.1 mm 4 mps 743 mmHg 71%
    13:00 +25°C° 0.1 mm 4 mps 743 mmHg 69%
    14:00 +25°C° 0.1 mm 4 mps 742 mmHg 68%
    15:00 +23°C° 0.4 mm 4 mps 742 mmHg 70%
    16:00 +23°C° 0.4 mm 4 mps 742 mmHg 73%
    17:00 +22°C° 0.4 mm 4 mps 742 mmHg 75%
    18:00 +21°C° 0 mm 3 mps 742 mmHg 80%
    19:00 +20°C° 0 mm 3 mps 742 mmHg 86%
    20:00 +18°C° 0 mm 2 mps 742 mmHg 91%
    21:00 +18°C° 0 mm 2 mps 742 mmHg 92%
    22:00 +17°C° 0 mm 2 mps 741 mmHg 94%
    23:00 +17°C° 0 mm 2 mps 741 mmHg 95%
    Show more